Location: Newark
(53.3503°N, 9.6158°W)
Time: 03:56:33
(UTC+00:00)

Envisat - Pass Details

Date: 01 November 2019
Orbit: 764 x 766 km, 98.1° (Epoch: 20 November)

Event Time Altitude Azimuth Distance (km) Brightness Sun altitude
Rises 20:06:42 0° 216° (SW) 3,225 6.5 -27.1°
Reaches altitude 10° 20:09:58 10° 238° (WSW) 2,304 6.0 -27.6°
Maximum altitude 20:12:57 16° 275° (W) 1,949 5.9 -28.0°
Drops below altitude 10° 20:15:58 10° 311° (NW) 2,314 6.2 -28.5°
Sets 20:19:16 0° 334° (NNW) 3,246 6.8 -29.0°
